SCP
0 0 0 0 0 0 0 0 0 0 0 0 0 0 0 0 0 0 0 0 0 0 0 0 0 0 0 0 0 0 0 0 0 0 0 0 0 0 0 0 0 0 0
0 0 0 0 0 0 0 0 0 0 0 0 0 0 0 0 0 0 0 0 0 0 0 0 0 0 0 0 0 0 0 0 0 0 0 0 0 0 0 0 0 0 0
0 0 0 0 0 0 0 0 0 0 0 0 0 0 0 0 0 0 0 0 0 0 0 0 0 0 0 0 0 0 0 0 0 0 0 0 0 0 0 0 0 0 0
0 0 0 0 0 0 0 0 0 0 0 0 0 0 0 0 0 0 0 0 0 0 0 0 0 0 0 0 0 0 0 0 0 0 0 0 0 0 0 0 0 0 0
0 0 0 0 0 0 0 0 0 0 0 0 0 0 0 0 0 0 0 0 0 0 0 0 0 0 0 0 0 0 0 0 0 0 0 0 0 0 0 0 0 0 0
0 0 0 0 0 0 0 0 0 0 0 0 0 0 0 0 0 0 0 0 0 0 0 0 0 0 0 0 0 0 0 0 0 0 0 0 0 0 0 0 0 0 0
0 0 0 0 0 0 0 0 0 0 0 0 0 0 0 0 0 0 0 0 0 0 0 0 0 0 0 0 0 0 0 0 0 0 0 0 0 0 0 0 0 0 0
0 0 0 0 0 0 0 0 0 0 0 0 0 0 0 0 0 0 0 0 0 0 0 0 0 0 0 0 0 0 0 0 0 0 0 0 0 0 0 0 0 0 0
0 0 0 0 0 0 0 0 0 0 0 0 0 0 0 0 0 0 0 0 0 0 0 0 0 0 0 0 0 0 0 0 0 0 0 0 0 0 0 0 0 0 0
0 0 0 0 0 0 0 0 0 0 0 0 0 0 0 0 0 0 0 0 0 0 0 0 0 0 0 0 0 0 0 0 0 0 0 0 0 0 0 0 0 0 0
0 0 0 0 0 0 0 0 0 0 0 0 0 0 0 0 0 0 0 0 0 0 0 0 0 0 0 0 0 0 0 0 0 0 0 0 0 0 0 0 0 0 0
0 0 0 0 0 0 0 0 0 0 0 0 0 0 0 0 0 0 0 0 0 0 0 0 0 0 0 0 0 0 0 0 0 0 0 0 0 0 0 0 0 0 0
0 0 0 0 0 0 0 0 0 0 0 0 0 0 0 0 0 0 0 0 0 0 0 0 0 0 0 0 0 0 0 0 0 0 0 0 0 0 0 0 0 0 0
0 0 0 0 0 0 0 0 0 0 0 0 0 0 0 0 0 0 0 0 0 0 0 0 0 0 0 0 0 0 0 0 0 0 0 0 0 0 0 0 0 0 0
0 0 0 0 0 0 0 0 0 0 0 0 0 0 0 0 0 0 0 0 0 0 0 0 0 0 0 0 0 0 0 0 0 0 0 0 0 0 0 0 0 0 0
0 0 0 0 0 0 0 0 0 0 0 0 0 0 0 0 0 0 0 0 0 0 0 0 0 0 0 0 0 0 0 0 0 0 0 0 0 0 0 0 0 0 0
0 0 0 0 0 0 0 0 0 0 0 0 0 0 0 0 0 0 0 0 0 0 0 0 0 0 0 0 0 0 0 0 0 0 0 0 0 0 0 0 0 0 0
0 0 0 0 0 0 0 0 0 0 0 0 0 0 0 0 0 0 0 0 0 0 0 0 0 0 0 0 0 0 0 0 0 0 0 0 0 0 0 0 0 0 0
0 0 0 0 0 0 0 0 0 0 0 0 0 0 0 0 0 0 0 0 0 0 0 0 0 0 0 0 0 0 0 0 0 0 0 0 0 0 0 0 0 0 0
0 0 0 0 0 0 0 0 0 0 0 0 0 0 0 0 0 0 0 0 0 0 0 0 0 0 0 0 0 0 0 0 0 0 0 0 0 0 0 0 0 0 0
0 0 0 0 0 0 0 0 0 0 0 0 0 0 0 0 0 0 0 0 0 0 0 0 0 0 0 0 0 0 0 0 0 0 0 0 0 0 0 0 0 0 0
0 0 0 0 0 0 0 0 0 0 0 0 0 0 0 0 0 0 0 0 0 0 0 0 0 0 0 0 0 0 0 0 0 0 0 0 0 0 0 0 0 0 0
0 0 0 0 0 0 0 0 0 0 0 0 0 0 0 0 0 0 0 0 0 0 0 0 0 0 0 0 0 0 0 0 0 0 0 0 0 0 0 0 0 0 0
0 0 0 0 0 0 0 0 0 0 0 0 0 0 0 0 0 0 0 0 0 0 0 0 0 0 0 0 0 0 0 0 0 0 0 0 0 0 0 0 0 0 0
0 0 0 0 0 0 0 0 0 0 0 0 0 0 0 0 0 0 0 0 0 0 0 0 0 0 0 0 0 0 0 0 0 0 0 0 0 0 0 0 0 0 0
0 0 0 0 0 0 0 0 0 0 0 0 0 0 0 0 0 0 0 0 0 0 0 0 0 0 0 0 0 0 0 0 0 0 0 0 0 0 0 0 0 0 0
Wind_Speed
2 2 2 2 2 2 3 4 4 5 6 7 7 8 8 8 8 9 10 9 12 11 10 11 13 10 8 7 6 6 6 5 5 3 3 4 9 9 8 7 6 7 6
2 2 3 3 3 3 4 4 4 5 5 6 6 7 8 8 8 9 10 10 11 12 12 12 13 10 11 9 8 9 8 6 6 6 4 5 7 10 9 8 7 6 5
3 3 3 3 4 4 4 4 4 5 5 5 6 7 8 8 8 9 9 10 10 11 11 13 12 12 13 10 10 10 8 6 5 6 6 4 3 6 7 6 6 4 6
3 3 4 4 5 5 4 4 5 5 5 6 6 7 7 7 8 8 8 9 9 9 10 10 11 13 14 13 11 11 9 8 6 6 6 5 4 6 7 6 6 5 5
3 3 4 4 4 4 4 4 5 5 6 6 6 6 6 6 7 8 8 9 9 9 8 9 10 11 13 13 10 11 11 9 8 7 7 6 6 8 9 7 6 4 3
4 4 4 4 4 4 4 4 5 5 5 5 6 7 7 7 11 15 11 8 8 9 9 8 8 9 11 17 18 18 17 14 12 10 8 10 10 9 7 7 6 5 5
4 5 4 4 4 5 4 4 5 5 5 6 7 7 8 10 15 15 15 9 8 8 8 7 7 7 9 9 14 18 17 19 18 12 11 11 11 11 11 9 8 6 4
4 5 4 4 5 5 4 5 5 4 5 5 6 7 7 9 14 15 14 10 8 8 8 8 8 7 9 10 9 9 9 11 13 10 9 9 9 10 11 10 8 5 2
5 5 5 5 5 5 5 5 4 4 5 5 5 6 7 9 13 15 13 6 7 8 7 7 8 8 13 16 11 10 8 7 11 11 10 10 13 15 12 8 7 5 3
6 6 6 5 5 6 6 5 4 4 5 4 5 5 7 7 10 13 13 5 7 6 5 6 8 10 14 18 11 10 10 8 7 7 8 10 10 13 16 10 9 6 4
6 6 6 5 5 5 5 4 3 3 3 4 4 4 5 6 9 13 14 7 7 6 6 6 7 15 17 19 15 10 12 9 8 8 7 6 6 6 8 7 7 7 6
6 6 6 5 4 3 4 3 3 3 3 4 4 4 4 4 6 10 14 13 10 7 6 6 7 15 18 19 15 14 16 12 7 7 6 6 7 6 6 7 7 6 5
6 7 6 6 4 3 3 3 3 2 3 3 3 4 4 3 5 10 12 13 13 8 6 10 12 15 16 14 16 16 11 8 7 7 7 7 6 6 6 5 5 4 3
7 7 6 5 5 4 3 3 3 3 4 4 4 4 4 3 3 4 4 5 7 8 6 8 13 15 12 9 8 10 7 7 7 7 7 5 5 5 6 5 5 5 4
6 6 5 5 5 4 4 4 4 4 5 5 4 4 4 5 6 8 5 4 4 5 4 4 4 4 5 5 5 5 6 6 7 6 6 5 6 6 6 5 5 5 5
6 6 5 4 4 4 4 4 6 7 8 9 9 7 6 8 9 9 10 10 10 9 5 4 5 5 6 6 6 6 6 7 7 6 6 6 6 7 6 5 5 6 7
6 6 5 5 5 4 4 4 4 4 5 5 5 6 7 7 7 8 8 8 8 9 5 4 5 6 6 5 5 5 6 6 6 6 6 6 6 6 6 6 6 6 7
6 6 6 5 5 5 4 4 3 3 3 3 3 4 5 6 5 6 6 4 3 3 3 3 4 4 4 4 4 4 4 5 5 5 6 6 6 6 6 7 7 7 7
6 5 5 5 4 4 4 3 3 3 3 2 2 3 5 5 4 4 3 1 1 1 1 1 2 2 2 3 3 3 4 4 4 5 5 5 5 6 6 6 6 8 7
5 6 6 4 4 3 3 2 2 2 1 1 2 2 2 2 1 2 2 1 0 0 1 1 1 2 2 2 2 3 3 3 3 4 4 4 4 5 6 6 6 6 6
5 5 5 4 3 3 2 2 2 1 1 1 2 2 1 0 1 1 1 2 1 0 0 1 1 1 2 2 2 3 3 3 3 3 3 4 4 4 4 5 5 5 5
4 4 3 3 2 2 2 2 1 0 0 0 1 2 3 2 2 2 2 2 2 1 1 1 1 1 1 1 2 2 3 3 3 3 3 4 4 4 4 4 4 4 4
3 3 3 2 2 2 2 2 1 1 1 1 1 2 2 2 2 2 2 2 2 2 1 1 1 0 0 1 1 2 3 3 3 4 4 4 4 4 4 4 5 5 5
3 3 3 2 2 2 2 2 2 2 1 1 2 2 2 2 2 2 2 2 2 2 2 1 1 1 1 1 1 1 2 2 3 3 4 4 4 4 4 4 4 5 5
3 3 3 3 3 2 2 2 2 2 2 2 2 2 2 2 2 2 2 2 2 2 2 2 1 1 2 2 2 2 3 3 2 2 3 3 4 4 4 4 4 4 4
3 3 3 3 3 3 2 2 2 2 2 2 2 2 2 1 1 2 2 2 2 2 2 2 2 2 3 3 3 4 4 4 3 3 3 3 3 4 4 4 4 4 4
Wind_Direction
261 252 248 244 231 220 218 215 206 201 195 198 202 206 210 212 210 212 215 208 212 215 212 214 218 209 205 201 195 194 198 186 200 170 156 161 173 183 185 182 188 196 208
270 259 254 250 238 230 230 225 211 208 205 204 202 207 212 214 212 215 219 215 216 217 215 215 218 210 210 204 201 204 202 191 179 174 165 168 183 184 178 182 188 196 202
284 268 265 259 248 241 237 229 217 212 211 206 203 210 215 215 216 219 221 222 222 222 218 217 215 207 210 207 204 205 201 192 177 165 166 165 156 171 172 182 189 193 204
288 268 263 258 251 247 239 229 223 216 214 213 213 217 218 216 218 219 220 225 228 228 223 220 216 211 211 206 204 203 192 186 178 167 160 163 157 163 171 181 193 198 207
300 281 273 273 264 257 249 240 231 224 222 218 218 223 222 220 221 220 221 224 227 230 227 223 221 218 216 208 203 196 188 187 181 178 170 166 170 173 188 183 190 182 205
313 298 297 293 278 264 255 246 237 232 225 216 219 222 224 226 233 229 225 225 226 227 230 227 220 215 215 216 213 204 195 189 186 184 183 185 186 183 174 173 167 168 209
314 307 304 293 281 271 261 249 242 237 229 226 226 224 231 235 236 235 230 224 226 228 227 222 220 215 209 213 216 212 209 206 195 186 187 190 183 180 172 175 182 184 190
317 312 310 302 288 281 268 255 249 239 232 234 235 231 237 243 242 240 233 226 227 228 224 218 218 211 205 202 201 202 203 206 203 197 193 187 181 175 177 175 172 155 109
317 312 309 301 292 285 272 263 254 244 240 235 233 229 235 245 243 243 236 225 228 230 224 216 213 210 210 206 198 195 195 201 201 191 184 180 179 174 164 147 151 157 190
311 306 302 295 285 279 273 269 260 246 246 241 241 233 235 244 245 243 238 224 226 224 217 213 210 209 211 209 200 191 193 189 175 175 179 182 178 178 178 175 171 177 179
307 302 299 293 284 279 279 273 265 256 254 250 252 249 242 241 249 246 242 228 220 216 215 213 215 216 217 215 206 200 201 182 175 172 170 169 169 175 181 181 185 185 187
310 306 301 298 292 286 279 279 268 251 253 257 260 266 255 245 242 248 249 244 227 215 215 209 214 219 220 220 213 207 202 185 171 169 174 180 182 187 188 187 191 196 200
309 303 301 301 295 284 269 270 272 254 254 261 259 267 269 253 253 253 254 253 241 222 213 214 216 222 223 223 220 208 194 181 173 179 189 194 192 187 178 178 186 189 196
297 295 294 292 292 286 270 251 249 250 252 255 257 263 266 259 249 246 248 253 246 229 217 217 220 224 221 212 208 204 190 183 185 192 194 187 174 175 185 184 188 185 199
291 287 287 280 278 279 268 253 248 242 235 246 249 248 255 261 250 246 237 230 222 221 192 184 194 197 202 196 193 189 183 181 190 194 190 186 186 190 195 189 188 185 199
297 293 288 285 281 275 276 281 262 256 258 258 257 254 253 257 267 261 254 247 239 221 192 188 195 197 198 196 195 194 190 191 195 195 195 195 195 197 198 193 192 200 215
284 287 287 284 279 273 266 265 278 281 266 268 273 278 276 276 277 272 260 249 241 219 207 196 197 198 199 198 198 197 197 195 192 197 201 201 201 202 201 201 202 209 219
284 280 276 275 276 273 267 264 262 266 282 297 309 309 304 296 293 289 272 249 236 217 207 199 198 195 196 197 198 200 199 191 193 200 204 204 203 204 205 208 209 212 217
288 282 278 276 273 271 269 265 263 263 268 288 319 330 331 322 331 336 326 273 214 201 204 189 181 181 183 189 194 197 195 196 198 202 206 207 207 209 213 214 213 213 213
286 284 284 280 277 275 270 261 257 252 259 277 300 309 325 350 347 346 351 3 89 143 173 174 170 173 179 185 188 189 191 195 198 205 212 213 212 213 217 217 217 217 217
296 298 297 291 285 283 280 272 260 237 242 266 290 314 23 60 32 22 18 13 16 3 160 148 151 164 176 183 189 193 197 206 208 209 213 217 217 220 221 221 221 221 223
302 305 307 305 310 314 313 316 318 308 249 281 329 355 32 49 48 47 36 20 9 7 12 74 131 154 182 195 199 200 207 212 216 219 223 223 221 221 221 221 222 219 215
319 322 327 334 338 350 1 8 16 28 38 28 28 34 35 39 41 40 26 5 359 2 10 41 73 15 299 248 224 210 214 222 224 221 220 224 224 220 215 219 219 217 217
335 339 345 349 356 2 14 19 25 33 40 40 35 35 32 31 32 28 16 1 359 3 8 15 22 347 333 321 297 271 250 245 233 223 219 221 223 221 216 217 217 217 220
354 357 1 2 4 6 11 18 23 25 24 23 23 22 16 16 16 7 356 352 352 351 350 349 345 334 320 316 311 298 288 283 263 231 215 212 218 218 214 216 214 213 214
1 3 4 4 5 3 5 7 6 5 4 2 1 358 351 347 342 334 330 330 328 323 322 322 319 313 306 301 298 298 291 282 262 236 207 201 208 214 209 212 211 209 207